Retour au catalogue

TAIJING-3 02

ActifScienceSSO
NORAD 58822·PAYLOAD·🇨🇳 China

Lancé Jan 23, 2024 depuis Jiuquan Satellite Launch Center

Loading…

Prochains Passages (prochaines 24 heures)

TLE

FraisSource: Space-Track

Époque: Sep 14, 2026, 23:21 UTC

1 58822U 24016C   26257.97336689  .00007383  00000-0  28634-3 0  9998
2 58822  97.4314 338.0545 0008647 236.1227 123.9190 15.26384904146829

Suivez TAIJING-3 02 en temps réel avec AllMySat

Download on the App Store